Location: Unspecified
(0.0000°N, 0.0000°E)
Time: 04:50:44
(UTC+00:00)

Amateur Radio Satellites - All Passes

Search period start: 24 August 2017 04:20
Search period end: 25 August 2017 04:20
Location: Unspecified, 0.0000°N, 0.0000°E

Satellite Date Start Highest point End Downlink Frequencies (MHz)
Time Altitude Azimuth
STARS 24 Aug 04:39:38 04:43:23 27° 78° (ENE) 04:47:06 437.465
nSIGHT-1 24 Aug 04:41:15 04:41:32 10° 126° (SE) 04:41:50 .
CUBESAT XI-V 24 Aug 04:52:35 04:56:06 22° 258° (WSW) 04:59:38 437.345
KAITUO 1B 24 Aug 05:03:15 05:04:07 11° 102° (ESE) 05:04:58 145.475/437.950
CUTE-I 24 Aug 05:12:55 05:17:03 23° 103° (ESE) 05:21:11 437.470
JUGNU 24 Aug 05:26:48 05:32:33 47° 340° (NNW) 05:38:19 437.505
NUDT-PHONESAT 24 Aug 05:28:23 05:31:35 27° 101° (E) 05:34:49 437.300
XW-2D 24 Aug 05:35:11 05:38:57 59° 101° (E) 05:42:45 145.860 - 145.880
LilacSat-2 24 Aug 05:35:17 05:39:06 62° 101° (E) 05:42:56 437.200
SRMSAT 24 Aug 05:43:23 05:49:03 42° 160° (SSE) 05:54:42 437.500
XW-2B 24 Aug 05:46:16 05:50:06 86° 100° (E) 05:53:57 145.730 - 145.750
DOVE 4 24 Aug 05:48:08 05:51:17 21° 282° (WNW) 05:54:25 437.250
KKS-1 24 Aug 05:50:00 05:50:37 10° 257° (WSW) 05:51:13 437.445
HO-68 24 Aug 05:56:47 06:02:12 23° 105° (ESE) 06:07:37 435.675
XW-2C 24 Aug 06:05:42 06:09:21 43° 281° (W) 06:13:01 145.795 - 145.815
ISS 24 Aug 06:10:57 06:13:52 29° 305° (NW) 06:16:47 437.550
nSIGHT-1 24 Aug 06:15:03 06:17:43 23° 306° (NW) 06:20:23 .
XW-2F 24 Aug 06:15:11 06:18:36 32° 281° (WNW) 06:22:04 145.980 - 146.000
STARS 24 Aug 06:17:30 06:19:25 13° 257° (WSW) 06:21:22 437.465
CUTE 1.7 + AOD 2 24 Aug 06:20:01 06:23:38 27° 102° (ESE) 06:27:13 437.475
KAITUO 1B 24 Aug 06:34:53 06:37:50 22° 281° (WNW) 06:40:47 145.475/437.950
RS-15 24 Aug 06:46:08 06:50:12 12° 113° (ESE) 06:54:18 29.354- 29.394
STRAND 1 24 Aug 06:46:34 06:51:30 48° 78° (ENE) 06:56:24 437.568
UWE-3 24 Aug 06:52:36 06:55:39 18° 103° (ESE) 06:58:44 435.000/436.395/437.385
CUTE-I 24 Aug 06:52:47 06:56:49 22° 283° (WNW) 07:00:53 437.470
O/OREOS (USA 219) 24 Aug 06:53:16 06:57:25 37° 104° (ESE) 07:01:32 437.305
SEEDS 24 Aug 07:00:32 07:04:41 58° 102° (ESE) 07:08:49 437.485
CUBEBUG 2 24 Aug 07:05:47 07:10:07 56° 102° (ESE) 07:14:37 437.445
XW-2A 24 Aug 07:09:02 07:12:25 63° 101° (E) 07:15:49 145.665 - 145.685
JUGNU 24 Aug 07:17:39 07:21:56 20° 345° (NNW) 07:26:11 437.505
ZACube-1 24 Aug 07:24:01 07:27:32 23° 102° (ESE) 07:31:07 437.345
PCSat 24 Aug 07:24:46 07:29:27 30° 71° (ENE) 07:34:07 145.827
SRMSAT 24 Aug 07:32:19 07:38:18 71° 339° (NNW) 07:44:14 437.500
AAUSAT CUBESAT 2 24 Aug 07:35:27 07:39:33 67° 101° (E) 07:43:39 437.432
AO-73 24 Aug 07:42:29 07:46:34 36° 102° (ESE) 07:50:43 145.935
HO-68 24 Aug 07:43:06 07:49:34 38° 285° (WNW) 07:56:07 435.675
CUTE 1.7 + AOD 2 24 Aug 07:57:39 07:59:10 12° 282° (WNW) 08:00:42 437.475
FO-29 24 Aug 08:06:23 08:12:56 29° 78° (ENE) 08:19:12 435.910
Oscar 11 24 Aug 08:23:11 08:27:32 88° 275° (W) 08:31:54 .
UWE-3 24 Aug 08:28:30 08:31:49 21° 281° (W) 08:35:11 435.000/436.395/437.385
SO-50 24 Aug 08:40:00 08:44:21 40° 248° (WSW) 08:48:46 436.795
Max Valier Satellite 24 Aug 08:46:38 08:49:17 18° 102° (ESE) 08:51:56 145.860
RS-15 24 Aug 08:50:36 09:02:23 88° 110° (ESE) 09:14:40 29.354- 29.394
NO-84 24 Aug 08:50:37 08:54:00 41° 59° (ENE) 08:57:41 435.350 FM
UNISAT 6 24 Aug 08:57:38 09:01:15 25° 79° (E) 09:04:48 437.425
ZACube-1 24 Aug 09:00:48 09:03:32 16° 281° (W) 09:06:18 437.345
PCSat 24 Aug 09:09:04 09:12:34 17° 250° (WSW) 09:16:03 145.827
JUGNU 24 Aug 09:10:18 09:11:50 11° 354° (N) 09:13:22 437.505
SRMSAT 24 Aug 09:22:41 09:27:39 27° 342° (NNW) 09:32:35 437.500
TIGRISAT 24 Aug 09:30:51 09:35:17 68° 79° (E) 09:39:36 435.000
EO-88 24 Aug 09:31:44 09:35:22 77° 100° (E) 09:39:03 145.990 - 145.960
PRISM 24 Aug 09:32:38 09:36:37 45° 78° (ENE) 09:40:35 437.425
DELFI C3 24 Aug 09:43:54 09:47:26 33° 281° (WNW) 09:50:59 145.870
FO-29 24 Aug 09:50:31 09:57:33 37° 256° (WSW) 10:04:23 435.910
Max Valier Satellite 24 Aug 10:21:18 10:22:50 12° 281° (WNW) 10:24:23 145.860
UNISAT 6 24 Aug 10:35:22 10:37:40 14° 257° (WSW) 10:39:56 437.425
EO-79 24 Aug 10:42:14 10:44:35 15° 78° (ENE) 10:46:55 145.935-145.965
QB50P2 24 Aug 10:42:28 10:45:13 17° 78° (ENE) 10:47:57 145.880/145.840
LO-87 24 Aug 10:49:48 10:53:19 86° 283° (WNW) 10:56:54 145.935 - 145.965
JUGNU 24 Aug 11:01:16 11:02:03 10° 4° (N) 11:02:51 437.505
SPROUT 24 Aug 11:06:32 11:07:55 11° 102° (ESE) 11:09:19 437.525
DUCHIFAT 1 24 Aug 11:06:40 11:10:07 25° 78° (ENE) 11:13:31 145.980
RS-15 24 Aug 11:09:40 11:14:53 14° 295° (WNW) 11:20:13 29.354- 29.394
SRMSAT 24 Aug 11:14:49 11:17:28 13° 350° (N) 11:20:06 437.500
AIST 2D 24 Aug 11:22:57 11:26:00 29° 259° (W) 11:29:02 435.315
VELOX 1 24 Aug 11:25:13 11:28:01 17° 102° (ESE) 11:30:49 145.980
ESTCUBE 1 24 Aug 11:33:09 11:37:24 42° 282° (WNW) 11:41:41 437.505/2401.250
M-CUBED/EXP-1 PRIME 24 Aug 11:39:24 11:43:16 38° 255° (WSW) 11:47:23 437.505
NANOSAT C BR1 24 Aug 11:53:01 11:57:08 53° 258° (WSW) 12:01:13 145.865
POLYITAN 1 24 Aug 12:01:33 12:05:23 34° 258° (WSW) 12:09:11 437.675
Oscar 19 24 Aug 12:09:44 12:12:21 14° 77° (ENE) 12:14:57 437.125/150
EO-79 24 Aug 12:16:51 12:20:04 21° 258° (WSW) 12:23:16 145.935-145.965
QB50P2 24 Aug 12:17:47 12:20:44 18° 258° (WSW) 12:23:39 145.880/145.840
UKube-1 24 Aug 12:23:08 12:24:31 11° 103° (ESE) 12:25:54 .
BUGSAT 1 24 Aug 12:26:40 12:30:49 72° 79° (ENE) 12:34:54 437.445
50 SAT 24 Aug 12:34:13 12:37:24 45° 102° (ESE) 12:40:36 437.505
SPROUT 24 Aug 12:39:56 12:43:32 27° 281° (WNW) 12:47:09 437.525
DUCHIFAT 1 24 Aug 12:43:47 12:45:30 12° 258° (WSW) 12:47:12 145.980
JUGNU 24 Aug 12:48:13 12:52:02 17° 14° (NNE) 12:55:51 437.505
DX 1 24 Aug 12:49:37 12:53:49 52° 102° (ESE) 12:58:01 434.975-435.025
VELOX 1 24 Aug 13:00:58 13:04:12 20° 282° (WNW) 13:07:26 145.980
BEESAT 3 24 Aug 13:41:54 13:45:26 35° 68° (ENE) 13:48:55 437.485
Oscar 19 24 Aug 13:46:47 13:51:23 34° 257° (WSW) 13:55:59 437.125/150
Gurwin Techsat 1B 24 Aug 13:50:09 13:55:21 56° 257° (WSW) 14:00:33 435.225
UKube-1 24 Aug 13:56:35 14:00:15 28° 282° (WNW) 14:03:56 .
BEESAT 2 24 Aug 14:05:25 14:07:59 17° 68° (ENE) 14:10:32 435.950
AO-85 24 Aug 14:08:23 14:13:04 51° 69° (ENE) 14:18:04 145.980
BEESAT 24 Aug 14:15:35 14:19:35 27° 103° (ESE) 14:23:37 436.000
JUGNU 24 Aug 14:35:57 14:41:27 40° 20° (NNE) 14:46:56 437.505
YUBILEINY 24 Aug 14:36:32 14:45:23 76° 93° (E) 14:54:08 435.215
AO-7 24 Aug 14:37:44 14:45:39 47° 74° (ENE) 14:53:32 .
ITUPSAT 1 24 Aug 14:51:43 14:56:30 82° 102° (ESE) 15:01:19 437.325
SRMSAT 24 Aug 14:55:15 14:58:03 13° 11° (N) 15:00:51 437.500
MOZHAYETS 4 24 Aug 15:02:25 15:07:02 83° 282° (WNW) 15:11:41
ITAMSAT 1 24 Aug 15:14:01 15:19:15 88° 84° (E) 15:24:28 435.822/435.867
CUBESAT XI-V 24 Aug 15:33:06 15:37:13 31° 102° (ESE) 15:41:19 437.345
BEESAT 2 24 Aug 15:42:58 15:45:27 16° 248° (WSW) 15:47:56 435.950
BEESAT 24 Aug 15:54:20 15:57:05 15° 283° (WNW) 15:59:50 436.000
KKS-1 24 Aug 16:22:21 16:26:37 50° 102° (ESE) 16:30:55 437.445
JUGNU 24 Aug 16:24:39 16:30:31 74° 201° (SSW) 16:36:22 437.505
DOVE 4 24 Aug 16:29:33 16:34:16 33° 78° (ENE) 16:38:59 437.250
AO-7 24 Aug 16:31:48 16:38:01 23° 253° (WSW) 16:44:15 .
YUBILEINY 24 Aug 16:39:33 16:41:45 11° 273° (W) 16:43:57 435.215
SRMSAT 24 Aug 16:42:50 16:47:50 28° 18° (NNE) 16:52:51 437.500
STARS 24 Aug 16:49:57 16:53:58 37° 102° (ESE) 16:58:01 437.465
Tancredo 1 24 Aug 17:04:31 17:06:38 19° 234° (SW) 17:08:46 437.200
CUBESAT XI-V 24 Aug 17:12:21 17:14:18 12° 282° (WNW) 17:16:14 437.345
NUDT-PHONESAT 24 Aug 17:20:14 17:22:53 19° 79° (E) 17:25:31 437.300
XW-2D 24 Aug 17:28:56 17:32:31 44° 79° (ENE) 17:36:05 145.860 - 145.880
LilacSat-2 24 Aug 17:29:45 17:33:23 48° 79° (E) 17:37:01 437.200
XW-2B 24 Aug 17:39:59 17:43:41 66° 80° (E) 17:47:24 145.730 - 145.750
ISS 24 Aug 17:44:34 17:47:42 50° 234° (SW) 17:50:52 437.550
nSIGHT-1 24 Aug 17:47:47 17:50:49 39° 234° (SW) 17:53:51 .
HO-68 24 Aug 17:49:04 17:53:53 19° 75° (ENE) 17:58:39 435.675
CUTE-I 24 Aug 17:51:04 17:56:26 70° 77° (ENE) 18:01:45 437.470
XW-2C 24 Aug 17:59:19 18:02:59 54° 259° (WSW) 18:06:38 145.795 - 145.815
XW-2F 24 Aug 18:08:13 18:11:45 41° 259° (W) 18:15:16 145.980 - 146.000
DOVE 4 24 Aug 18:08:30 18:11:38 16° 258° (WSW) 18:14:46 437.250
JUGNU 24 Aug 18:14:44 18:19:39 28° 198° (SSW) 18:24:35 437.505
CUTE 1.7 + AOD 2 24 Aug 18:26:04 18:29:50 32° 79° (E) 18:33:36 437.475
KAITUO 1B 24 Aug 18:26:47 18:29:58 28° 259° (WSW) 18:33:10 145.475/437.950
SRMSAT 24 Aug 18:31:14 18:37:08 75° 21° (NNE) 18:43:07 437.500
XW-2A 24 Aug 18:52:02 18:54:56 28° 79° (E) 18:57:50 145.665 - 145.685
NUDT-PHONESAT 24 Aug 18:55:29 18:56:29 11° 258° (WSW) 18:57:29 437.300
UWE-3 24 Aug 19:03:32 19:07:01 24° 79° (E) 19:10:25 435.000/436.395/437.385
O/OREOS (USA 219) 24 Aug 19:03:45 19:08:18 67° 76° (ENE) 19:12:52 437.305
SEEDS 24 Aug 19:05:36 19:09:46 70° 78° (ENE) 19:13:55 437.485
SO-50 24 Aug 19:13:48 19:16:57 18° 113° (ESE) 19:20:04 436.795
CUBEBUG 2 24 Aug 19:18:26 19:22:55 86° 78° (ENE) 19:27:12 437.445
STRAND 1 24 Aug 19:18:53 19:23:57 67° 282° (WNW) 19:29:03 437.568
ZACube-1 24 Aug 19:33:50 19:37:30 29° 79° (E) 19:41:06 437.345
HO-68 24 Aug 19:34:30 19:41:16 45° 255° (WSW) 19:48:00 435.675
AAUSAT CUBESAT 2 24 Aug 19:38:44 19:42:53 76° 79° (ENE) 19:47:01 437.432
AO-73 24 Aug 19:52:07 19:56:10 46° 79° (E) 20:00:08 145.935
PCSat 24 Aug 20:00:10 20:05:35 85° 289° (WNW) 20:10:59 145.827
JUGNU 24 Aug 20:06:36 20:09:17 13° 191° (S) 20:11:59 437.505
SRMSAT 24 Aug 20:20:51 20:26:23 40° 200° (SSW) 20:31:58 437.500
Oscar 11 24 Aug 20:31:57 20:36:12 65° 258° (WSW) 20:40:27 .
RS-15 24 Aug 20:34:04 20:45:28 77° 69° (ENE) 20:56:24 29.354- 29.394
NO-84 24 Aug 20:35:05 20:38:25 33° 123° (ESE) 20:41:29 435.350 FM
Max Valier Satellite 24 Aug 20:38:32 20:40:16 13° 79° (ENE) 20:41:58 145.860
UWE-3 24 Aug 20:41:08 20:43:11 13° 257° (WSW) 20:45:11 435.000/436.395/437.385
SO-50 24 Aug 20:53:42 20:57:09 21° 292° (WNW) 21:00:35 436.795
UNISAT 6 24 Aug 21:09:52 21:14:01 38° 102° (ESE) 21:18:16 437.425
ZACube-1 24 Aug 21:13:11 21:13:28 10° 257° (WSW) 21:13:46 437.345
EO-88 24 Aug 21:21:33 21:25:04 48° 78° (ENE) 21:28:33 145.990 - 145.960
FO-29 24 Aug 21:24:23 21:29:24 54° 282° (WNW) 21:34:41 435.910
PRISM 24 Aug 21:35:08 21:39:03 49° 102° (ESE) 21:42:58 437.425
DELFI C3 24 Aug 21:41:51 21:45:30 36° 259° (WSW) 21:49:10 145.870
TIGRISAT 24 Aug 21:43:22 21:47:50 80° 282° (WNW) 21:52:26 435.000
Max Valier Satellite 24 Aug 22:11:29 22:13:50 16° 259° (WSW) 22:16:09 145.860
SRMSAT 24 Aug 22:12:07 22:16:00 18° 194° (SSW) 22:19:53 437.500
ESTCUBE 1 24 Aug 22:12:45 22:14:52 13° 78° (ENE) 22:17:00 437.505/2401.250
POLYITAN 1 24 Aug 22:34:43 22:35:52 11° 102° (ESE) 22:37:01 437.675
LO-87 24 Aug 22:37:41 22:41:14 56° 79° (E) 22:44:46 145.935 - 145.965
EO-79 24 Aug 22:47:33 22:50:25 18° 102° (ESE) 22:53:17 145.935-145.965
QB50P2 24 Aug 22:48:05 22:51:15 21° 102° (ESE) 22:54:27 145.880/145.840
RS-15 24 Aug 22:51:43 22:57:26 15° 247° (WSW) 23:03:07 29.354- 29.394
AIST 2D 24 Aug 23:08:19 23:11:47 53° 281° (W) 23:15:16 435.315
DUCHIFAT 1 24 Aug 23:11:33 23:15:13 29° 102° (ESE) 23:18:53 145.980
SPROUT 24 Aug 23:12:37 23:14:59 15° 78° (ENE) 23:17:21 437.525
VELOX 1 24 Aug 23:35:51 23:39:28 24° 78° (ENE) 23:43:04 145.980
M-CUBED/EXP-1 PRIME 24 Aug 23:39:35 23:42:58 34° 287° (WNW) 23:46:10 437.505
JUGNU 24 Aug 23:46:52 23:49:33 13° 170° (S) 23:52:14 437.505
ESTCUBE 1 24 Aug 23:47:37 23:51:24 27° 258° (WSW) 23:55:11 437.505/2401.250
NANOSAT C BR1 24 Aug 23:58:33 00:02:33 43° 282° (WNW) 00:06:36 145.865
SRMSAT 25 Aug 00:05:06 00:06:10 10° 184° (S) 00:07:14 437.500
POLYITAN 1 25 Aug 00:07:43 00:11:21 28° 282° (WNW) 00:15:02 437.675
50 SAT 25 Aug 00:16:50 00:19:32 22° 79° (E) 00:22:14 437.505
EO-79 25 Aug 00:23:03 00:25:53 18° 282° (WNW) 00:28:45 145.935-145.965
QB50P2 25 Aug 00:24:18 00:26:46 15° 282° (WNW) 00:29:15 145.880/145.840
BUGSAT 1 25 Aug 00:29:24 00:33:28 79° 100° (E) 00:37:37 437.445
UKube-1 25 Aug 00:30:21 00:32:52 15° 78° (ENE) 00:35:23 .
Oscar 19 25 Aug 00:41:14 00:45:58 37° 103° (ESE) 00:50:42 437.125/150
SPROUT 25 Aug 00:47:19 00:50:36 22° 258° (WSW) 00:53:54 437.525
Gurwin Techsat 1B 25 Aug 00:49:40 00:54:05 27° 103° (ESE) 00:58:30 435.225
DUCHIFAT 1 25 Aug 00:50:01 00:50:36 10° 282° (WNW) 00:51:11 145.980
DX 1 25 Aug 00:59:01 01:03:24 74° 78° (ENE) 01:07:45 434.975-435.025
VELOX 1 25 Aug 01:13:11 01:15:38 15° 257° (WSW) 01:18:05 145.980
YUBILEINY 25 Aug 01:17:25 01:22:19 16° 87° (E) 01:27:13 435.215
BEESAT 3 25 Aug 01:33:12 01:36:46 35° 112° (ESE) 01:40:23 437.485
JUGNU 25 Aug 01:34:15 01:39:12 27° 162° (SSE) 01:44:11 437.505
SRMSAT 25 Aug 01:54:50 01:56:34 11° 173° (S) 01:58:19 437.500
BEESAT 2 25 Aug 01:58:08 02:00:42 17° 112° (ESE) 02:03:18 435.950
UKube-1 25 Aug 02:05:17 02:08:37 22° 258° (WSW) 02:11:56 .
ITAMSAT 1 25 Aug 02:12:16 02:14:56 14° 103° (ESE) 02:17:37 435.822/435.867
AO-85 25 Aug 02:22:12 02:26:33 86° 292° (WNW) 02:30:35 145.980
Oscar 19 25 Aug 02:22:36 02:25:00 13° 283° (WNW) 02:27:24 437.125/150
Gurwin Techsat 1B 25 Aug 02:30:03 02:33:45 19° 283° (WNW) 02:37:27 435.225
BEESAT 25 Aug 02:36:50 02:41:28 52° 78° (ENE) 02:46:05 436.000
AO-7 25 Aug 03:03:42 03:11:58 75° 106° (ESE) 03:20:13 .
YUBILEINY 25 Aug 03:10:14 03:18:41 58° 267° (W) 03:27:14 435.215
ITUPSAT 1 25 Aug 03:14:12 03:18:49 49° 258° (WSW) 03:23:23 437.325
MOZHAYETS 4 25 Aug 03:19:21 03:23:44 47° 258° (WSW) 03:28:05
JUGNU 25 Aug 03:22:26 03:28:24 71° 159° (SSE) 03:34:22 437.505
BEESAT 2 25 Aug 03:35:47 03:38:11 16° 292° (WNW) 03:40:36 435.950
SRMSAT 25 Aug 03:42:17 03:46:39 20° 165° (SSE) 03:51:00 437.500
ITAMSAT 1 25 Aug 03:49:28 03:54:06 34° 283° (WNW) 03:58:47 435.822/435.867
CUBESAT XI-V 25 Aug 03:50:51 03:55:23 55° 78° (ENE) 03:59:54 437.345
